Time,TemperatureF,DewpointF,PressureIn,WindDirection,WindDirectionDegrees,WindSpeedMPH,WindSpeedGustMPH,Humidity,HourlyPrecipIn,Conditions,Clouds,dailyrainin,SoftwareType,DateUTC
2013-10-13 00:02:00,46.8,40.3,30.22,SW,233,0.0,7.0,78,0.00,,,0.00,Wunderground v.1.15,2013-10-13 05:02:00,
2013-10-13 00:08:00,46.7,40.2,30.22,SW,234,0.0,7.0,78,0.00,,,0.00,Wunderground v.1.15,2013-10-13 05:08:00,
2013-10-13 00:14:00,46.5,40.0,30.22,SW,234,0.0,7.0,78,0.00,,,0.00,Wunderground v.1.15,2013-10-13 05:14:00,
2013-10-13 00:20:00,46.3,39.8,30.23,SW,234,0.0,7.0,78,0.00,,,0.00,Wunderground v.1.15,2013-10-13 05:20:00,
2013-10-13 00:25:00,46.2,39.7,30.23,SW,233,0.0,7.0,78,0.00,,,0.00,Wunderground v.1.15,2013-10-13 05:25:00,
2013-10-13 00:31:00,46.1,39.6,30.23,SW,233,0.0,7.0,78,0.00,,,0.00,Wunderground v.1.15,2013-10-13 05:31:00,
2013-10-13 00:36:00,46.0,39.9,30.23,SW,234,0.0,7.0,79,0.00,,,0.00,Wunderground v.1.15,2013-10-13 05:36:00,
2013-10-13 00:42:00,45.9,39.8,30.24,SW,233,0.0,7.0,79,0.00,,,0.00,Wunderground v.1.15,2013-10-13 05:42:00,
2013-10-13 00:48:00,45.9,40.1,30.24,SW,233,0.0,7.0,80,0.00,,,0.00,Wunderground v.1.15,2013-10-13 05:48:00,
2013-10-13 00:53:00,45.8,40.0,30.24,SW,233,0.0,7.0,80,0.00,,,0.00,Wunderground v.1.15,2013-10-13 05:53:00,
2013-10-13 00:59:00,45.7,40.2,30.24,SW,233,0.0,7.0,81,0.00,,,0.00,Wunderground v.1.15,2013-10-13 05:59:00,
2013-10-13 01:05:00,45.7,40.2,30.24,SW,233,0.0,7.0,81,0.00,,,0.00,Wunderground v.1.15,2013-10-13 06:05:00,
2013-10-13 01:11:00,45.7,40.2,30.24,SW,233,0.0,7.0,81,0.00,,,0.00,Wunderground v.1.15,2013-10-13 06:11:00,
2013-10-13 01:16:00,45.6,40.1,30.25,SW,234,0.0,7.0,81,0.00,,,0.00,Wunderground v.1.15,2013-10-13 06:16:00,
2013-10-13 01:22:00,45.4,39.6,30.25,SW,234,0.0,7.0,80,0.00,,,0.00,Wunderground v.1.15,2013-10-13 06:22:00,
2013-10-13 01:28:00,45.5,39.4,30.25,SW,233,0.0,7.0,79,0.00,,,0.00,Wunderground v.1.15,2013-10-13 06:28:00,
2013-10-13 01:33:00,45.6,39.1,30.25,SW,233,0.0,7.0,78,0.00,,,0.00,Wunderground v.1.15,2013-10-13 06:33:00,
2013-10-13 01:39:00,45.6,39.1,30.25,SW,233,0.0,7.0,78,0.00,,,0.00,Wunderground v.1.15,2013-10-13 06:39:00,
2013-10-13 01:45:00,45.5,39.0,30.26,SW,233,0.0,7.0,78,0.00,,,0.00,Wunderground v.1.15,2013-10-13 06:45:00,
2013-10-13 01:50:00,45.5,38.7,30.26,SW,233,0.0,7.0,77,0.00,,,0.00,Wunderground v.1.15,2013-10-13 06:50:00,
2013-10-13 01:56:00,45.5,38.4,30.26,SW,234,0.0,7.0,76,0.00,,,0.00,Wunderground v.1.15,2013-10-13 06:56:00,
2013-10-13 02:02:00,45.5,38.0,30.26,SW,234,0.0,7.0,75,0.00,,,0.00,Wunderground v.1.15,2013-10-13 07:02:00,
2013-10-13 02:07:00,45.5,38.0,30.26,SW,234,0.0,7.0,75,0.00,,,0.00,Wunderground v.1.15,2013-10-13 07:07:00,
2013-10-13 02:13:00,45.4,37.6,30.26,SW,234,0.0,7.0,74,0.00,,,0.00,Wunderground v.1.15,2013-10-13 07:13:00,
2013-10-13 02:18:00,45.4,37.6,30.27,SW,234,0.0,7.0,74,0.00,,,0.00,Wunderground v.1.15,2013-10-13 07:18:00,
2013-10-13 02:24:00,45.4,37.6,30.27,SW,234,0.0,7.0,74,0.00,,,0.00,Wunderground v.1.15,2013-10-13 07:24:00,
2013-10-13 02:30:00,45.2,37.4,30.27,SW,234,0.0,7.0,74,0.00,,,0.00,Wunderground v.1.15,2013-10-13 07:30:00,
2013-10-13 02:36:00,45.1,37.3,30.27,SW,234,0.0,7.0,74,0.00,,,0.00,Wunderground v.1.15,2013-10-13 07:36:00,
2013-10-13 02:42:00,45.0,37.2,30.27,SW,234,0.0,7.0,74,0.00,,,0.00,Wunderground v.1.15,2013-10-13 07:42:00,
2013-10-13 02:48:00,44.9,37.5,30.27,SW,234,0.0,7.0,75,0.00,,,0.00,Wunderground v.1.15,2013-10-13 07:48:00,
2013-10-13 02:53:00,44.6,37.2,30.27,SW,234,0.0,7.0,75,0.00,,,0.00,Wunderground v.1.15,2013-10-13 07:53:00,
2013-10-13 02:59:00,44.4,37.3,30.27,SW,233,0.0,7.0,76,0.00,,,0.00,Wunderground v.1.15,2013-10-13 07:59:00,
2013-10-13 03:04:00,44.3,37.2,30.27,SW,234,0.0,7.0,76,0.00,,,0.00,Wunderground v.1.15,2013-10-13 08:04:00,
2013-10-13 03:09:00,44.3,37.2,30.28,SW,234,0.0,7.0,76,0.00,,,0.00,Wunderground v.1.15,2013-10-13 08:09:00,
2013-10-13 03:15:00,44.3,36.5,30.28,SW,234,0.0,7.0,74,0.00,,,0.00,Wunderground v.1.15,2013-10-13 08:15:00,
2013-10-13 03:20:00,44.3,36.5,30.28,SW,233,0.0,7.0,74,0.00,,,0.00,Wunderground v.1.15,2013-10-13 08:20:00,
2013-10-13 03:25:00,44.4,36.6,30.28,SW,233,0.0,7.0,74,0.00,,,0.00,Wunderground v.1.15,2013-10-13 08:25:00,
2013-10-13 03:31:00,44.4,36.6,30.28,SW,234,0.0,7.0,74,0.00,,,0.00,Wunderground v.1.15,2013-10-13 08:31:00,
2013-10-13 03:36:00,44.3,36.2,30.28,SW,234,0.0,7.0,73,0.00,,,0.00,Wunderground v.1.15,2013-10-13 08:36:00,
2013-10-13 03:41:00,44.2,36.4,30.28,SW,234,0.0,7.0,74,0.00,,,0.00,Wunderground v.1.15,2013-10-13 08:41:00,
2013-10-13 03:47:00,44.1,36.0,30.28,SW,234,0.0,7.0,73,0.00,,,0.00,Wunderground v.1.15,2013-10-13 08:47:00,
2013-10-13 03:52:00,43.9,35.8,30.28,SW,234,0.0,7.0,73,0.00,,,0.00,Wunderground v.1.15,2013-10-13 08:52:00,
2013-10-13 03:57:00,43.8,35.7,30.28,SW,233,0.0,7.0,73,0.00,,,0.00,Wunderground v.1.15,2013-10-13 08:57:00,
2013-10-13 04:03:00,43.7,36.0,30.28,SW,234,0.0,7.0,74,0.00,,,0.00,Wunderground v.1.15,2013-10-13 09:03:00,
2013-10-13 04:08:00,43.5,35.8,30.28,SW,233,0.0,7.0,74,0.00,,,0.00,Wunderground v.1.15,2013-10-13 09:08:00,
2013-10-13 04:13:00,43.4,36.0,30.28,SW,234,0.0,7.0,75,0.00,,,0.00,Wunderground v.1.15,2013-10-13 09:13:00,
2013-10-13 04:19:00,43.1,35.7,30.28,SW,234,0.0,7.0,75,0.00,,,0.00,Wunderground v.1.15,2013-10-13 09:19:00,
2013-10-13 04:24:00,43.0,35.6,30.29,SW,234,0.0,7.0,75,0.00,,,0.00,Wunderground v.1.15,2013-10-13 09:24:00,
2013-10-13 04:29:00,42.9,35.5,30.29,SW,234,0.0,7.0,75,0.00,,,0.00,Wunderground v.1.15,2013-10-13 09:29:00,
2013-10-13 04:35:00,42.8,35.8,30.29,SW,234,0.0,7.0,76,0.00,,,0.00,Wunderground v.1.15,2013-10-13 09:35:00,
2013-10-13 04:41:00,42.7,35.7,30.29,SW,234,0.0,7.0,76,0.00,,,0.00,Wunderground v.1.15,2013-10-13 09:41:00,
2013-10-13 04:47:00,42.4,35.7,30.29,SW,234,0.0,7.0,77,0.00,,,0.00,Wunderground v.1.15,2013-10-13 09:47:00,
2013-10-13 04:53:00,42.2,35.5,30.30,SW,234,0.0,7.0,77,0.00,,,0.00,Wunderground v.1.15,2013-10-13 09:53:00,
2013-10-13 04:58:00,41.9,35.5,30.30,SW,233,0.0,7.0,78,0.00,,,0.00,Wunderground v.1.15,2013-10-13 09:58:00,
2013-10-13 05:04:00,41.8,35.4,30.30,SW,234,0.0,7.0,78,0.00,,,0.00,Wunderground v.1.15,2013-10-13 10:04:00,
2013-10-13 05:09:00,41.6,35.2,30.31,SW,234,0.0,7.0,78,0.00,,,0.00,Wunderground v.1.15,2013-10-13 10:09:00,
2013-10-13 05:15:00,41.4,35.4,30.31,SW,234,0.0,7.0,79,0.00,,,0.00,Wunderground v.1.15,2013-10-13 10:15:00,
2013-10-13 05:21:00,41.3,35.3,30.31,SW,234,0.0,7.0,79,0.00,,,0.00,Wunderground v.1.15,2013-10-13 10:21:00,
2013-10-13 05:27:00,41.1,35.1,30.31,SW,234,0.0,7.0,79,0.00,,,0.00,Wunderground v.1.15,2013-10-13 10:27:00,
2013-10-13 05:32:00,41.1,35.1,30.31,SW,234,0.0,7.0,79,0.00,,,0.00,Wunderground v.1.15,2013-10-13 10:32:00,
2013-10-13 05:38:00,40.9,35.2,30.31,SW,234,0.0,7.0,80,0.00,,,0.00,Wunderground v.1.15,2013-10-13 10:38:00,
2013-10-13 05:44:00,40.7,35.0,30.31,SW,234,0.0,7.0,80,0.00,,,0.00,Wunderground v.1.15,2013-10-13 10:44:00,
2013-10-13 05:49:00,40.7,35.0,30.32,SW,234,0.0,7.0,80,0.00,,,0.00,Wunderground v.1.15,2013-10-13 10:49:00,
2013-10-13 05:55:00,40.7,35.3,30.32,SW,234,0.0,7.0,81,0.00,,,0.00,Wunderground v.1.15,2013-10-13 10:55:00,
2013-10-13 06:01:00,40.5,34.8,30.32,SW,234,0.0,7.0,80,0.00,,,0.00,Wunderground v.1.15,2013-10-13 11:01:00,
2013-10-13 06:06:00,40.4,35.0,30.32,SW,234,0.0,7.0,81,0.00,,,0.00,Wunderground v.1.15,2013-10-13 11:06:00,
2013-10-13 06:12:00,40.4,35.0,30.33,SW,234,0.0,7.0,81,0.00,,,0.00,Wunderground v.1.15,2013-10-13 11:12:00,
2013-10-13 06:18:00,40.3,34.9,30.33,SW,233,0.0,7.0,81,0.00,,,0.00,Wunderground v.1.15,2013-10-13 11:18:00,
2013-10-13 06:24:00,40.2,34.8,30.33,SW,233,0.0,7.0,81,0.00,,,0.00,Wunderground v.1.15,2013-10-13 11:24:00,
2013-10-13 06:29:00,40.2,34.8,30.33,SW,234,0.0,7.0,81,0.00,,,0.00,Wunderground v.1.15,2013-10-13 11:29:00,
2013-10-13 06:35:00,40.0,34.9,30.33,SW,234,0.0,7.0,82,0.00,,,0.00,Wunderground v.1.15,2013-10-13 11:35:00,
2013-10-13 06:40:00,39.9,34.9,30.33,SW,234,0.0,7.0,82,0.00,,,0.00,Wunderground v.1.15,2013-10-13 11:40:00,
2013-10-13 06:46:00,39.7,34.7,30.33,SW,234,0.0,7.0,82,0.00,,,0.00,Wunderground v.1.15,2013-10-13 11:46:00,
2013-10-13 06:52:00,39.5,34.8,30.33,SW,233,0.0,7.0,83,0.00,,,0.00,Wunderground v.1.15,2013-10-13 11:52:00,
2013-10-13 06:58:00,39.4,34.7,30.34,SW,233,0.0,7.0,83,0.00,,,0.00,Wunderground v.1.15,2013-10-13 11:58:00,
2013-10-13 07:03:00,39.2,34.5,30.34,SW,234,0.0,7.0,83,0.00,,,0.00,Wunderground v.1.15,2013-10-13 12:03:00,
2013-10-13 07:09:00,39.0,34.3,30.34,SW,234,0.0,7.0,83,0.00,,,0.00,Wunderground v.1.15,2013-10-13 12:09:00,
2013-10-13 07:14:00,38.9,34.5,30.34,SW,234,0.0,7.0,84,0.00,,,0.00,Wunderground v.1.15,2013-10-13 12:14:00,
2013-10-13 07:20:00,38.8,34.4,30.35,SW,233,0.0,7.0,84,0.00,,,0.00,Wunderground v.1.15,2013-10-13 12:20:00,
2013-10-13 07:25:00,38.7,34.6,30.35,SW,233,0.0,7.0,85,0.00,,,0.00,Wunderground v.1.15,2013-10-13 12:25:00,
2013-10-13 07:30:00,38.6,34.5,30.35,SW,233,0.0,7.0,85,0.00,,,0.00,Wunderground v.1.15,2013-10-13 12:30:00,
2013-10-13 07:36:00,38.6,34.5,30.36,SW,234,0.0,7.0,85,0.00,,,0.00,Wunderground v.1.15,2013-10-13 12:36:00,
2013-10-13 07:41:00,38.5,34.7,30.36,SW,234,0.0,7.0,86,0.00,,,0.00,Wunderground v.1.15,2013-10-13 12:41:00,
2013-10-13 07:46:00,38.4,34.6,30.36,SW,234,0.0,7.0,86,0.00,,,0.00,Wunderground v.1.15,2013-10-13 12:46:00,
2013-10-13 07:52:00,38.5,34.7,30.36,SW,234,0.0,7.0,86,0.00,,,0.00,Wunderground v.1.15,2013-10-13 12:52:00,
2013-10-13 07:57:00,38.6,35.1,30.37,SW,234,0.0,7.0,87,0.00,,,0.00,Wunderground v.1.15,2013-10-13 12:57:00,
2013-10-13 08:03:00,38.7,35.2,30.38,SW,234,0.0,7.0,87,0.00,,,0.00,Wunderground v.1.15,2013-10-13 13:03:00,
2013-10-13 08:09:00,39.0,35.5,30.38,SW,233,0.0,7.0,87,0.00,,,0.00,Wunderground v.1.15,2013-10-13 13:09:00,
2013-10-13 08:15:00,39.3,35.8,30.38,SW,234,0.0,7.0,87,0.00,,,0.00,Wunderground v.1.15,2013-10-13 13:15:00,
2013-10-13 08:20:00,39.6,36.0,30.38,SW,234,0.0,7.0,87,0.00,,,0.00,Wunderground v.1.15,2013-10-13 13:20:00,
2013-10-13 08:26:00,40.0,36.4,30.39,SW,234,0.0,7.0,87,0.00,,,0.00,Wunderground v.1.15,2013-10-13 13:26:00,
2013-10-13 08:32:00,40.5,36.6,30.39,SW,234,0.0,7.0,86,0.00,,,0.00,Wunderground v.1.15,2013-10-13 13:32:00,
2013-10-13 08:38:00,41.0,36.8,30.39,SW,234,0.0,7.0,85,0.00,,,0.00,Wunderground v.1.15,2013-10-13 13:38:00,
2013-10-13 08:43:00,41.5,37.0,30.39,SW,233,0.0,7.0,84,0.00,,,0.00,Wunderground v.1.15,2013-10-13 13:43:00,
2013-10-13 08:49:00,42.3,37.5,30.40,SW,233,0.0,7.0,83,0.00,,,0.00,Wunderground v.1.15,2013-10-13 13:49:00,
2013-10-13 08:55:00,42.9,37.5,30.40,SW,233,0.0,7.0,81,0.00,,,0.00,Wunderground v.1.15,2013-10-13 13:55:00,
2013-10-13 09:01:00,43.8,38.0,30.40,SW,234,0.0,7.0,80,0.00,,,0.00,Wunderground v.1.15,2013-10-13 14:01:00,
2013-10-13 09:06:00,44.5,38.1,30.41,SW,234,0.0,7.0,78,0.00,,,0.00,Wunderground v.1.15,2013-10-13 14:06:00,
2013-10-13 09:12:00,45.3,38.2,30.41,SW,233,0.0,7.0,76,0.00,,,0.00,Wunderground v.1.15,2013-10-13 14:12:00,
2013-10-13 09:18:00,46.1,38.6,30.41,SW,233,0.0,7.0,75,0.00,,,0.00,Wunderground v.1.15,2013-10-13 14:18:00,
2013-10-13 09:23:00,47.0,39.1,30.41,SW,234,0.0,7.0,74,0.00,,,0.00,Wunderground v.1.15,2013-10-13 14:23:00,
2013-10-13 09:29:00,48.0,40.1,30.41,SW,234,0.0,7.0,74,0.00,,,0.00,Wunderground v.1.15,2013-10-13 14:29:00,
2013-10-13 09:35:00,49.5,40.5,30.41,SW,234,0.0,7.0,71,0.00,,,0.00,Wunderground v.1.15,2013-10-13 14:35:00,
2013-10-13 09:41:00,50.9,40.3,30.41,SW,234,0.0,7.0,67,0.00,,,0.00,Wunderground v.1.15,2013-10-13 14:41:00,
2013-10-13 09:46:00,52.6,41.6,30.41,SW,233,0.0,7.0,66,0.00,,,0.00,Wunderground v.1.15,2013-10-13 14:46:00,
2013-10-13 09:52:00,53.6,40.9,30.41,SW,233,0.0,7.0,62,0.00,,,0.00,Wunderground v.1.15,2013-10-13 14:52:00,
2013-10-13 09:58:00,54.5,41.3,30.41,SW,233,0.0,7.0,61,0.00,,,0.00,Wunderground v.1.15,2013-10-13 14:58:00,
2013-10-13 10:04:00,56.0,41.9,30.41,SW,233,0.0,7.0,59,0.00,,,0.00,Wunderground v.1.15,2013-10-13 15:04:00,
2013-10-13 10:09:00,57.3,41.3,30.41,SW,233,0.0,7.0,55,0.00,,,0.00,Wunderground v.1.15,2013-10-13 15:09:00,
2013-10-13 10:15:00,59.0,42.8,30.41,SW,234,0.0,7.0,55,0.00,,,0.00,Wunderground v.1.15,2013-10-13 15:15:00,
2013-10-13 10:21:00,60.6,41.8,30.40,SW,233,0.0,7.0,50,0.00,,,0.00,Wunderground v.1.15,2013-10-13 15:21:00,
2013-10-13 10:26:00,61.5,42.2,30.40,SW,234,0.0,7.0,49,0.00,,,0.00,Wunderground v.1.15,2013-10-13 15:26:00,
2013-10-13 10:32:00,62.8,43.9,30.40,SW,233,0.0,7.0,50,0.00,,,0.00,Wunderground v.1.15,2013-10-13 15:32:00,
2013-10-13 10:38:00,63.4,41.7,30.40,SW,234,0.0,7.0,45,0.00,,,0.00,Wunderground v.1.15,2013-10-13 15:38:00,
2013-10-13 10:44:00,63.2,41.5,30.40,West,262,1.0,7.0,45,0.00,,,0.00,Wunderground v.1.15,2013-10-13 15:44:00,
2013-10-13 10:50:00,62.9,41.2,30.40,North,355,1.0,7.0,45,0.00,,,0.00,Wunderground v.1.15,2013-10-13 15:50:00,
2013-10-13 10:56:00,63.0,41.9,30.40,North,360,1.0,7.0,46,0.00,,,0.00,Wunderground v.1.15,2013-10-13 15:56:00,
2013-10-13 11:01:00,63.1,41.4,30.40,ENE,72,1.0,7.0,45,0.00,,,0.00,Wunderground v.1.15,2013-10-13 16:01:00,
2013-10-13 11:07:00,63.5,40.6,30.40,ENE,72,1.0,7.0,43,0.00,,,0.00,Wunderground v.1.15,2013-10-13 16:07:00,
2013-10-13 11:13:00,63.6,40.7,30.40,East,87,1.0,7.0,43,0.00,,,0.00,Wunderground v.1.15,2013-10-13 16:13:00,
2013-10-13 11:19:00,64.3,41.9,30.40,East,87,1.0,7.0,44,0.00,,,0.00,Wunderground v.1.15,2013-10-13 16:19:00,
2013-10-13 11:25:00,64.8,42.9,30.40,East,87,0.0,7.0,45,0.00,,,0.00,Wunderground v.1.15,2013-10-13 16:25:00,
2013-10-13 11:30:00,65.2,41.5,30.40,East,83,0.0,7.0,42,0.00,,,0.00,Wunderground v.1.15,2013-10-13 16:30:00,
2013-10-13 11:35:00,64.0,41.0,30.40,East,84,1.0,7.0,43,0.00,,,0.00,Wunderground v.1.15,2013-10-13 16:35:00,
2013-10-13 11:41:00,63.6,40.1,30.40,North,355,2.0,7.0,42,0.00,,,0.00,Wunderground v.1.15,2013-10-13 16:41:00,
2013-10-13 11:46:00,63.2,40.9,30.40,NNE,31,2.0,7.0,44,0.00,,,0.00,Wunderground v.1.15,2013-10-13 16:46:00,
2013-10-13 11:51:00,62.9,40.6,30.39,NE,36,1.0,7.0,44,0.00,,,0.00,Wunderground v.1.15,2013-10-13 16:51:00,
2013-10-13 11:57:00,63.1,40.8,30.39,NE,36,1.0,7.0,44,0.00,,,0.00,Wunderground v.1.15,2013-10-13 16:57:00,
2013-10-13 12:03:00,63.6,40.1,30.39,NNW,344,2.0,7.0,42,0.00,,,0.00,Wunderground v.1.15,2013-10-13 17:03:00,
2013-10-13 12:09:00,64.3,40.1,30.39,ENE,71,2.0,7.0,41,0.00,,,0.00,Wunderground v.1.15,2013-10-13 17:09:00,
2013-10-13 12:15:00,64.4,40.2,30.39,ENE,71,2.0,7.0,41,0.00,,,0.00,Wunderground v.1.15,2013-10-13 17:15:00,
2013-10-13 12:20:00,64.5,40.3,30.39,ENE,73,1.0,7.0,41,0.00,,,0.00,Wunderground v.1.15,2013-10-13 17:20:00,
2013-10-13 12:26:00,63.6,39.5,30.39,ENE,64,2.0,7.0,41,0.00,,,0.00,Wunderground v.1.15,2013-10-13 17:26:00,
2013-10-13 12:32:00,62.7,38.6,30.39,ENE,70,3.0,7.0,41,0.00,,,0.00,Wunderground v.1.15,2013-10-13 17:32:00,
2013-10-13 12:38:00,62.7,39.9,30.38,NNW,332,1.0,7.0,43,0.00,,,0.00,Wunderground v.1.15,2013-10-13 17:38:00,
2013-10-13 12:43:00,62.9,39.4,30.38,North,360,1.0,7.0,42,0.00,,,0.00,Wunderground v.1.15,2013-10-13 17:43:00,
2013-10-13 12:49:00,63.5,38.7,30.38,NNE,22,1.0,7.0,40,0.00,,,0.00,Wunderground v.1.15,2013-10-13 17:49:00,
2013-10-13 12:55:00,64.1,39.3,30.37,NNE,15,1.0,7.0,40,0.00,,,0.00,Wunderground v.1.15,2013-10-13 17:55:00,
2013-10-13 13:01:00,63.8,39.0,30.37,NNE,14,1.0,7.0,40,0.00,,,0.00,Wunderground v.1.15,2013-10-13 18:01:00,
2013-10-13 13:07:00,63.4,39.3,30.36,NE,42,1.0,7.0,41,0.00,,,0.00,Wunderground v.1.15,2013-10-13 18:07:00,
2013-10-13 13:12:00,62.7,39.3,30.37,East,79,2.0,7.0,42,0.00,,,0.00,Wunderground v.1.15,2013-10-13 18:12:00,
2013-10-13 13:18:00,62.0,38.0,30.36,ENE,74,2.0,7.0,41,0.00,,,0.00,Wunderground v.1.15,2013-10-13 18:18:00,
2013-10-13 13:24:00,61.3,37.4,30.36,ENE,74,2.0,7.0,41,0.00,,,0.00,Wunderground v.1.15,2013-10-13 18:24:00,
2013-10-13 13:30:00,61.2,37.9,30.36,ENE,76,2.0,2.0,42,0.00,,,0.00,Wunderground v.1.15,2013-10-13 18:30:00,
2013-10-13 13:36:00,61.2,39.1,30.36,ENE,76,1.0,7.0,44,0.00,,,0.00,Wunderground v.1.15,2013-10-13 18:36:00,
2013-10-13 13:41:00,61.4,38.1,30.35,NE,53,1.0,7.0,42,0.00,,,0.00,Wunderground v.1.15,2013-10-13 18:41:00,
2013-10-13 13:47:00,61.6,38.3,30.35,NE,53,2.0,7.0,42,0.00,,,0.00,Wunderground v.1.15,2013-10-13 18:47:00,
2013-10-13 13:52:00,61.6,38.3,30.35,NE,56,1.0,7.0,42,0.00,,,0.00,Wunderground v.1.15,2013-10-13 18:52:00,
2013-10-13 13:58:00,61.7,38.4,30.35,NNW,344,1.0,7.0,42,0.00,,,0.00,Wunderground v.1.15,2013-10-13 18:58:00,
2013-10-13 14:04:00,61.8,37.8,30.35,North,360,1.0,7.0,41,0.00,,,0.00,Wunderground v.1.15,2013-10-13 19:04:00,
2013-10-13 14:10:00,61.8,37.8,30.35,North,355,1.0,7.0,41,0.00,,,0.00,Wunderground v.1.15,2013-10-13 19:10:00,
2013-10-13 14:16:00,61.9,37.3,30.35,North,355,1.0,7.0,40,0.00,,,0.00,Wunderground v.1.15,2013-10-13 19:16:00,
2013-10-13 14:22:00,62.0,39.8,30.35,NE,34,1.0,7.0,44,0.00,,,0.00,Wunderground v.1.15,2013-10-13 19:22:00,
2013-10-13 14:28:00,62.0,38.0,30.35,NE,34,1.0,7.0,41,0.00,,,0.00,Wunderground v.1.15,2013-10-13 19:28:00,
2013-10-13 14:34:00,62.0,38.6,30.35,NE,35,0.0,7.0,42,0.00,,,0.00,Wunderground v.1.15,2013-10-13 19:34:00,
2013-10-13 14:40:00,62.1,38.1,30.34,NE,37,1.0,7.0,41,0.00,,,0.00,Wunderground v.1.15,2013-10-13 19:40:00,
2013-10-13 14:45:00,62.2,38.8,30.35,NE,36,1.0,7.0,42,0.00,,,0.00,Wunderground v.1.15,2013-10-13 19:45:00,
2013-10-13 14:51:00,62.3,38.9,30.35,NE,36,0.0,7.0,42,0.00,,,0.00,Wunderground v.1.15,2013-10-13 19:51:00,
2013-10-13 14:57:00,62.6,38.6,30.34,NE,36,0.0,7.0,41,0.00,,,0.00,Wunderground v.1.15,2013-10-13 19:57:00,
2013-10-13 15:03:00,63.0,39.5,30.34,NNE,31,0.0,7.0,42,0.00,,,0.00,Wunderground v.1.15,2013-10-13 20:03:00,
2013-10-13 15:09:00,63.4,38.6,30.34,NNE,30,0.0,7.0,40,0.00,,,0.00,Wunderground v.1.15,2013-10-13 20:09:00,
2013-10-13 15:14:00,63.7,39.5,30.33,NNE,31,0.0,7.0,41,0.00,,,0.00,Wunderground v.1.15,2013-10-13 20:14:00,
2013-10-13 15:20:00,63.8,39.6,30.33,NNE,32,0.0,7.0,41,0.00,,,0.00,Wunderground v.1.15,2013-10-13 20:20:00,
2013-10-13 15:25:00,63.9,39.7,30.33,North,360,1.0,7.0,41,0.00,,,0.00,Wunderground v.1.15,2013-10-13 20:25:00,
2013-10-13 15:30:00,63.8,39.6,30.33,North,9,1.0,1.0,41,0.00,,,0.00,Wunderground v.1.15,2013-10-13 20:30:00,
2013-10-13 15:35:00,63.7,38.3,30.33,North,9,0.0,7.0,39,0.00,,,0.00,Wunderground v.1.15,2013-10-13 20:35:00,
2013-10-13 15:41:00,63.5,38.7,30.33,North,9,1.0,7.0,40,0.00,,,0.00,Wunderground v.1.15,2013-10-13 20:41:00,
2013-10-13 15:47:00,63.5,38.7,30.33,North,9,0.0,7.0,40,0.00,,,0.00,Wunderground v.1.15,2013-10-13 20:47:00,
2013-10-13 15:53:00,63.6,40.1,30.33,North,9,0.0,7.0,42,0.00,,,0.00,Wunderground v.1.15,2013-10-13 20:53:00,
2013-10-13 15:59:00,63.7,38.9,30.33,North,9,0.0,7.0,40,0.00,,,0.00,Wunderground v.1.15,2013-10-13 20:59:00,
2013-10-13 16:05:00,64.0,39.8,30.32,North,9,0.0,7.0,41,0.00,,,0.00,Wunderground v.1.15,2013-10-13 21:05:00,
2013-10-13 16:10:00,64.2,40.0,30.32,North,9,0.0,7.0,41,0.00,,,0.00,Wunderground v.1.15,2013-10-13 21:10:00,
2013-10-13 16:16:00,64.1,39.3,30.32,North,9,0.0,7.0,40,0.00,,,0.00,Wunderground v.1.15,2013-10-13 21:16:00,
2013-10-13 16:21:00,63.7,38.3,30.32,NNE,22,1.0,7.0,39,0.00,,,0.00,Wunderground v.1.15,2013-10-13 21:21:00,
2013-10-13 16:27:00,63.4,39.3,30.32,NNE,22,1.0,7.0,41,0.00,,,0.00,Wunderground v.1.15,2013-10-13 21:27:00,
2013-10-13 16:33:00,63.3,38.6,30.32,NNE,22,0.0,7.0,40,0.00,,,0.00,Wunderground v.1.15,2013-10-13 21:33:00,
2013-10-13 16:38:00,63.2,39.7,30.32,NNE,22,0.0,7.0,42,0.00,,,0.00,Wunderground v.1.15,2013-10-13 21:38:00,
2013-10-13 16:44:00,63.2,39.1,30.31,NW,311,0.0,7.0,41,0.00,,,0.00,Wunderground v.1.15,2013-10-13 21:44:00,
2013-10-13 16:50:00,63.2,39.7,30.31,NW,310,0.0,7.0,42,0.00,,,0.00,Wunderground v.1.15,2013-10-13 21:50:00,
2013-10-13 16:56:00,63.3,39.8,30.31,NW,310,0.0,7.0,42,0.00,,,0.00,Wunderground v.1.15,2013-10-13 21:56:00,
2013-10-13 17:01:00,63.3,39.2,30.31,NW,310,0.0,7.0,41,0.00,,,0.00,Wunderground v.1.15,2013-10-13 22:01:00,
2013-10-13 17:07:00,63.4,40.5,30.31,NW,310,0.0,7.0,43,0.00,,,0.00,Wunderground v.1.15,2013-10-13 22:07:00,
2013-10-13 17:12:00,63.4,40.5,30.31,NW,311,0.0,7.0,43,0.00,,,0.00,Wunderground v.1.15,2013-10-13 22:12:00,
2013-10-13 17:18:00,63.2,39.7,30.31,NW,310,0.0,7.0,42,0.00,,,0.00,Wunderground v.1.15,2013-10-13 22:18:00,
2013-10-13 17:23:00,63.1,40.8,30.31,NW,315,0.0,7.0,44,0.00,,,0.00,Wunderground v.1.15,2013-10-13 22:23:00,
2013-10-13 17:29:00,63.0,40.1,30.31,NW,314,0.0,7.0,43,0.00,,,0.00,Wunderground v.1.15,2013-10-13 22:29:00,
2013-10-13 17:34:00,62.9,40.0,30.30,NW,313,0.0,7.0,43,0.00,,,0.00,Wunderground v.1.15,2013-10-13 22:34:00,
2013-10-13 17:39:00,62.8,40.0,30.30,NW,319,0.0,7.0,43,0.00,,,0.00,Wunderground v.1.15,2013-10-13 22:39:00,
2013-10-13 17:45:00,62.6,40.4,30.30,NW,321,0.0,7.0,44,0.00,,,0.00,Wunderground v.1.15,2013-10-13 22:45:00,
2013-10-13 17:50:00,62.4,40.2,30.31,NW,321,0.0,7.0,44,0.00,,,0.00,Wunderground v.1.15,2013-10-13 22:50:00,
2013-10-13 17:55:00,62.3,41.8,30.30,NW,321,0.0,7.0,47,0.00,,,0.00,Wunderground v.1.15,2013-10-13 22:55:00,
2013-10-13 18:01:00,62.0,42.1,30.30,NW,321,0.0,7.0,48,0.00,,,0.00,Wunderground v.1.15,2013-10-13 23:01:00,
2013-10-13 18:06:00,61.8,40.8,30.31,NW,321,0.0,7.0,46,0.00,,,0.00,Wunderground v.1.15,2013-10-13 23:06:00,
2013-10-13 18:12:00,61.5,41.6,30.31,NW,321,0.0,7.0,48,0.00,,,0.00,Wunderground v.1.15,2013-10-13 23:12:00,
2013-10-13 18:17:00,61.2,41.9,30.31,NW,321,0.0,7.0,49,0.00,,,0.00,Wunderground v.1.15,2013-10-13 23:17:00,
2013-10-13 18:22:00,60.7,42.5,30.32,NW,322,0.0,7.0,51,0.00,,,0.00,Wunderground v.1.15,2013-10-13 23:22:00,
2013-10-13 18:28:00,60.2,43.5,30.32,NW,322,0.0,7.0,54,0.00,,,0.00,Wunderground v.1.15,2013-10-13 23:28:00,
2013-10-13 18:34:00,59.5,43.3,30.32,NW,322,0.0,7.0,55,0.00,,,0.00,Wunderground v.1.15,2013-10-13 23:34:00,
2013-10-13 18:40:00,59.0,43.8,30.32,NW,326,0.0,7.0,57,0.00,,,0.00,Wunderground v.1.15,2013-10-13 23:40:00,
2013-10-13 18:46:00,58.5,42.8,30.32,NW,326,0.0,7.0,56,0.00,,,0.00,Wunderground v.1.15,2013-10-13 23:46:00,
2013-10-13 18:52:00,57.9,43.2,30.32,NW,326,0.0,7.0,58,0.00,,,0.00,Wunderground v.1.15,2013-10-13 23:52:00,
2013-10-13 18:58:00,57.4,43.2,30.32,NW,326,0.0,7.0,59,0.00,,,0.00,Wunderground v.1.15,2013-10-13 23:58:00,
2013-10-13 19:04:00,56.9,43.6,30.33,NW,326,0.0,7.0,61,0.00,,,0.00,Wunderground v.1.15,2013-10-14 00:04:00,
2013-10-13 19:10:00,56.4,43.1,30.33,NW,326,0.0,7.0,61,0.00,,,0.00,Wunderground v.1.15,2013-10-14 00:10:00,
2013-10-13 19:15:00,56.0,42.3,30.33,NW,326,0.0,7.0,60,0.00,,,0.00,Wunderground v.1.15,2013-10-14 00:15:00,
2013-10-13 19:21:00,55.4,41.7,30.33,NW,326,0.0,7.0,60,0.00,,,0.00,Wunderground v.1.15,2013-10-14 00:21:00,
2013-10-13 19:27:00,55.1,42.3,30.33,NW,326,0.0,7.0,62,0.00,,,0.00,Wunderground v.1.15,2013-10-14 00:27:00,
2013-10-13 19:33:00,54.7,41.5,30.33,NW,326,0.0,7.0,61,0.00,,,0.00,Wunderground v.1.15,2013-10-14 00:33:00,
2013-10-13 19:39:00,54.4,42.1,30.33,NW,326,0.0,7.0,63,0.00,,,0.00,Wunderground v.1.15,2013-10-14 00:39:00,
2013-10-13 19:45:00,54.1,42.2,30.33,NW,326,0.0,7.0,64,0.00,,,0.00,Wunderground v.1.15,2013-10-14 00:45:00,
2013-10-13 19:50:00,53.9,42.0,30.33,NW,326,0.0,7.0,64,0.00,,,0.00,Wunderground v.1.15,2013-10-14 00:50:00,
2013-10-13 19:56:00,53.7,42.6,30.33,NW,326,0.0,7.0,66,0.00,,,0.00,Wunderground v.1.15,2013-10-14 00:56:00,
2013-10-13 20:02:00,53.4,42.3,30.33,NW,326,0.0,7.0,66,0.00,,,0.00,Wunderground v.1.15,2013-10-14 01:02:00,
2013-10-13 20:08:00,53.2,42.1,30.33,NW,326,0.0,7.0,66,0.00,,,0.00,Wunderground v.1.15,2013-10-14 01:08:00,
2013-10-13 20:14:00,53.0,42.3,30.33,NW,326,0.0,7.0,67,0.00,,,0.00,Wunderground v.1.15,2013-10-14 01:14:00,
2013-10-13 20:20:00,52.8,42.1,30.34,NW,326,0.0,7.0,67,0.00,,,0.00,Wunderground v.1.15,2013-10-14 01:20:00,
2013-10-13 20:25:00,52.7,42.4,30.34,NW,326,0.0,7.0,68,0.00,,,0.00,Wunderground v.1.15,2013-10-14 01:25:00,
2013-10-13 20:31:00,52.5,42.2,30.34,NW,326,0.0,7.0,68,0.00,,,0.00,Wunderground v.1.15,2013-10-14 01:31:00,
2013-10-13 20:36:00,52.3,42.4,30.34,NW,326,0.0,7.0,69,0.00,,,0.00,Wunderground v.1.15,2013-10-14 01:36:00,
2013-10-13 20:42:00,52.1,41.9,30.34,NW,326,0.0,7.0,68,0.00,,,0.00,Wunderground v.1.15,2013-10-14 01:42:00,
2013-10-13 20:48:00,51.9,42.0,30.34,NW,326,0.0,7.0,69,0.00,,,0.00,Wunderground v.1.15,2013-10-14 01:48:00,
2013-10-13 20:54:00,51.9,42.4,30.34,NW,326,0.0,7.0,70,0.00,,,0.00,Wunderground v.1.15,2013-10-14 01:54:00,
2013-10-13 21:00:00,51.7,42.2,30.33,NW,326,0.0,7.0,70,0.00,,,0.00,Wunderground v.1.15,2013-10-14 02:00:00,
2013-10-13 21:06:00,51.5,42.0,30.33,NW,326,0.0,7.0,70,0.00,,,0.00,Wunderground v.1.15,2013-10-14 02:06:00,
2013-10-13 21:11:00,51.5,42.4,30.33,NW,326,0.0,7.0,71,0.00,,,0.00,Wunderground v.1.15,2013-10-14 02:11:00,
2013-10-13 21:17:00,51.3,41.8,30.34,NW,326,0.0,7.0,70,0.00,,,0.00,Wunderground v.1.15,2013-10-14 02:17:00,
2013-10-13 21:22:00,51.2,41.7,30.33,NW,326,0.0,7.0,70,0.00,,,0.00,Wunderground v.1.15,2013-10-14 02:22:00,
2013-10-13 21:28:00,51.1,41.7,30.34,NW,326,0.0,7.0,70,0.00,,,0.00,Wunderground v.1.15,2013-10-14 02:28:00,
2013-10-13 21:34:00,50.9,41.5,30.33,NW,326,0.0,7.0,70,0.00,,,0.00,Wunderground v.1.15,2013-10-14 02:34:00,
2013-10-13 21:40:00,50.8,41.4,30.33,NW,326,0.0,7.0,70,0.00,,,0.00,Wunderground v.1.15,2013-10-14 02:40:00,
2013-10-13 21:46:00,50.6,41.2,30.33,NW,326,0.0,7.0,70,0.00,,,0.00,Wunderground v.1.15,2013-10-14 02:46:00,
2013-10-13 21:52:00,50.6,41.2,30.33,NW,326,0.0,7.0,70,0.00,,,0.00,Wunderground v.1.15,2013-10-14 02:52:00,
2013-10-13 21:58:00,50.5,40.7,30.32,NW,326,0.0,7.0,69,0.00,,,0.00,Wunderground v.1.15,2013-10-14 02:58:00,
2013-10-13 22:04:00,50.5,40.3,30.32,NW,326,0.0,7.0,68,0.00,,,0.00,Wunderground v.1.15,2013-10-14 03:04:00,
2013-10-13 22:10:00,50.7,40.1,30.32,NW,326,0.0,7.0,67,0.00,,,0.00,Wunderground v.1.15,2013-10-14 03:10:00,
2013-10-13 22:15:00,51.0,40.0,30.32,NW,326,0.0,7.0,66,0.00,,,0.00,Wunderground v.1.15,2013-10-14 03:15:00,
2013-10-13 22:21:00,51.5,39.3,30.32,NW,323,0.0,7.0,63,0.00,,,0.00,Wunderground v.1.15,2013-10-14 03:21:00,
2013-10-13 22:27:00,51.9,39.7,30.32,NW,323,0.0,7.0,63,0.00,,,0.00,Wunderground v.1.15,2013-10-14 03:27:00,
2013-10-13 22:33:00,52.1,39.9,30.32,NW,323,0.0,7.0,63,0.00,,,0.00,Wunderground v.1.15,2013-10-14 03:33:00,
2013-10-13 22:39:00,52.2,40.0,30.32,NW,323,0.0,7.0,63,0.00,,,0.00,Wunderground v.1.15,2013-10-14 03:39:00,
2013-10-13 22:44:00,52.0,39.8,30.32,NW,323,0.0,7.0,63,0.00,,,0.00,Wunderground v.1.15,2013-10-14 03:44:00,
2013-10-13 22:50:00,51.9,39.7,30.32,NW,322,0.0,7.0,63,0.00,,,0.00,Wunderground v.1.15,2013-10-14 03:50:00,
2013-10-13 22:55:00,51.7,39.5,30.32,NW,323,0.0,7.0,63,0.00,,,0.00,Wunderground v.1.15,2013-10-14 03:55:00,
2013-10-13 23:01:00,51.5,39.3,30.32,NW,323,0.0,7.0,63,0.00,,,0.00,Wunderground v.1.15,2013-10-14 04:01:00,
2013-10-13 23:02:00,51.5,39.3,30.32,NW,322,0.0,7.0,63,0.00,,,0.00,Wunderground v.1.15,2013-10-14 04:02:00,
2013-10-13 23:04:00,51.4,39.2,30.32,NW,322,0.0,7.0,63,0.00,,,0.00,Wunderground v.1.15,2013-10-14 04:04:00,
2013-10-13 23:07:00,51.4,39.2,30.32,NW,322,0.0,7.0,63,0.00,,,0.00,Wunderground v.1.15,2013-10-14 04:07:00,
2013-10-13 23:10:00,51.2,39.4,30.32,NW,323,0.0,7.0,64,0.00,,,0.00,Wunderground v.1.15,2013-10-14 04:10:00,
2013-10-13 23:12:00,51.2,39.4,30.32,NW,323,0.0,7.0,64,0.00,,,0.00,Wunderground v.1.15,2013-10-14 04:12:00,
2013-10-13 23:18:00,51.0,39.2,30.32,NW,323,0.0,7.0,64,0.00,,,0.00,Wunderground v.1.15,2013-10-14 04:18:00,
2013-10-13 23:23:00,50.8,39.1,30.32,NW,323,0.0,7.0,64,0.00,,,0.00,Wunderground v.1.15,2013-10-14 04:23:00,
2013-10-13 23:29:00,50.7,39.0,30.32,NW,323,0.0,7.0,64,0.00,,,0.00,Wunderground v.1.15,2013-10-14 04:29:00,
2013-10-13 23:35:00,50.6,38.5,30.31,NW,323,0.0,7.0,63,0.00,,,0.00,Wunderground v.1.15,2013-10-14 04:35:00,
2013-10-13 23:41:00,50.5,38.4,30.31,NW,322,0.0,7.0,63,0.00,,,0.00,Wunderground v.1.15,2013-10-14 04:41:00,
2013-10-13 23:46:00,50.4,38.3,30.31,NW,323,0.0,7.0,63,0.00,,,0.00,Wunderground v.1.15,2013-10-14 04:46:00,
2013-10-13 23:51:00,50.3,38.2,30.31,NW,323,0.0,7.0,63,0.00,,,0.00,Wunderground v.1.15,2013-10-14 04:51:00,
2013-10-13 23:57:00,50.2,38.9,30.31,NW,323,0.0,7.0,65,0.00,,,0.00,Wunderground v.1.15,2013-10-14 04:57:00,